• In Deutschland
  • Länderverzeichnis
  • Für 7 Tage
  • Wassertemperatur
  • Satellitenkarten
  • Wetterkarte
  • Widgets
  • user-avatar
    Anmelden

    Stündliche Wetter Bretten

    Heute, 22 Juni, Freitag

    Zeit Temperatur Niederschläge Wind Luftdruck Luftfeuchtigkeit
    00:00 +12°C° 0 mm 2 m/S 750 mmHg 66%
    01:00 +10°C° 0 mm 2 m/S 751 mmHg 69%
    02:00 +10°C° 0 mm 2 m/S 751 mmHg 72%
    03:00 +9°C° 0 mm 2 m/S 751 mmHg 76%
    04:00 +8°C° 0 mm 2 m/S 751 mmHg 79%
    05:00 +9°C° 0 mm 2 m/S 752 mmHg 75%
    06:00 +10°C° 0 mm 2 m/S 752 mmHg 71%
    07:00 +12°C° 0 mm 2 m/S 752 mmHg 68%
    08:00 +12°C° 0 mm 3 m/S 752 mmHg 64%
    09:00 +14°C° 0 mm 4 m/S 752 mmHg 60%
    10:00 +15°C° 0 mm 4 m/S 752 mmHg 56%
    11:00 +15°C° 0 mm 4 m/S 752 mmHg 56%
    12:00 +15°C° 0 mm 4 m/S 752 mmHg 56%
    13:00 +16°C° 0 mm 5 m/S 752 mmHg 57%
    14:00 +17°C° 0,1 mm 4 m/S 751 mmHg 56%
    15:00 +17°C° 0,1 mm 4 m/S 751 mmHg 56%
    16:00 +18°C° 0,1 mm 4 m/S 751 mmHg 56%
    17:00 +17°C° 0 mm 4 m/S 751 mmHg 59%
    18:00 +17°C° 0 mm 3 m/S 751 mmHg 62%
    19:00 +16°C° 0 mm 2 m/S 751 mmHg 65%
    20:00 +15°C° 0 mm 2 m/S 751 mmHg 69%
    21:00 +13°C° 0 mm 2 m/S 752 mmHg 73%
    22:00 +12°C° 0 mm 1 m/S 752 mmHg 77%
    23:00 +11°C° 0 mm 1 m/S 752 mmHg 80%

    Morgen, 23 Juni, Samstag

    Zeit Temperatur Niederschläge Wind Luftdruck Luftfeuchtigkeit
    00:00 +11°C° 0 mm 1 m/S 752 mmHg 82%
    01:00 +10°C° 0 mm 1 m/S 752 mmHg 85%
    02:00 +10°C° 0 mm 1 m/S 752 mmHg 87%
    03:00 +9°C° 0 mm 1 m/S 752 mmHg 88%
    04:00 +9°C° 0 mm 1 m/S 752 mmHg 90%
    05:00 +10°C° 0 mm 1 m/S 752 mmHg 86%
    06:00 +11°C° 0 mm 1 m/S 752 mmHg 82%
    07:00 +13°C° 0 mm 1 m/S 752 mmHg 77%
    08:00 +14°C° 0 mm 2 m/S 752 mmHg 70%
    09:00 +16°C° 0 mm 2 m/S 752 mmHg 63%
    10:00 +17°C° 0 mm 2 m/S 752 mmHg 56%
    11:00 +18°C° 0 mm 2 m/S 752 mmHg 53%
    12:00 +19°C° 0 mm 3 m/S 752 mmHg 50%
    13:00 +20°C° 0 mm 3 m/S 751 mmHg 47%
    14:00 +20°C° 0 mm 3 m/S 751 mmHg 48%
    15:00 +20°C° 0 mm 3 m/S 751 mmHg 49%
    16:00 +20°C° 0 mm 4 m/S 751 mmHg 50%
    17:00 +19°C° 0 mm 3 m/S 750 mmHg 55%
    18:00 +18°C° 0 mm 3 m/S 750 mmHg 59%
    19:00 +17°C° 0 mm 2 m/S 750 mmHg 64%
    20:00 +16°C° 0 mm 2 m/S 750 mmHg 67%
    21:00 +15°C° 0 mm 1 m/S 751 mmHg 71%
    22:00 +14°C° 0 mm 1 m/S 751 mmHg 75%
    23:00 +14°C° 0,2 mm 1 m/S 751 mmHg 78%

    übermorgen, 24 Juni, Sonntag

    Zeit Temperatur Niederschläge Wind Luftdruck Luftfeuchtigkeit
    00:00 +12°C° 0,2 mm 0 m/S 750 mmHg 82%
    01:00 +12°C° 0,2 mm 0 m/S 750 mmHg 85%
    02:00 +12°C° 0,1 mm 0 m/S 750 mmHg 86%
    03:00 +11°C° 0,1 mm 0 m/S 750 mmHg 87%
    04:00 +11°C° 0,1 mm 0 m/S 749 mmHg 89%
    05:00 +12°C° 0 mm 0 m/S 749 mmHg 86%
    06:00 +13°C° 0 mm 0 m/S 750 mmHg 84%
    07:00 +14°C° 0 mm 0 m/S 750 mmHg 82%
    08:00 +16°C° 0,1 mm 1 m/S 749 mmHg 76%
    09:00 +18°C° 0,1 mm 1 m/S 749 mmHg 71%
    10:00 +18°C° 0,1 mm 2 m/S 749 mmHg 66%
    11:00 +19°C° 0,1 mm 2 m/S 749 mmHg 63%
    12:00 +19°C° 0,1 mm 2 m/S 749 mmHg 60%
    13:00 +20°C° 0,1 mm 2 m/S 749 mmHg 57%
    14:00 +20°C° 0,1 mm 2 m/S 748 mmHg 57%
    15:00 +20°C° 0,1 mm 2 m/S 748 mmHg 57%
    16:00 +21°C° 0,1 mm 2 m/S 748 mmHg 57%
    17:00 +20°C° 0,1 mm 2 m/S 748 mmHg 61%
    18:00 +19°C° 0,1 mm 2 m/S 748 mmHg 66%
    19:00 +19°C° 0,1 mm 2 m/S 748 mmHg 70%
    20:00 +17°C° 0 mm 2 m/S 748 mmHg 74%
    21:00 +16°C° 0 mm 2 m/S 748 mmHg 79%
    22:00 +14°C° 0 mm 1 m/S 749 mmHg 83%
    23:00 +14°C° 0 mm 1 m/S 749 mmHg 85%

    25 Juni, Montag

    Zeit Temperatur Niederschläge Wind Luftdruck Luftfeuchtigkeit
    00:00 +13°C° 0 mm 1 m/S 749 mmHg 86%
    01:00 +13°C° 0 mm 1 m/S 749 mmHg 88%
    02:00 +12°C° 0 mm 1 m/S 749 mmHg 89%
    03:00 +12°C° 0 mm 1 m/S 749 mmHg 90%
    04:00 +12°C° 0 mm 1 m/S 748 mmHg 92%
    05:00 +13°C° 0 mm 1 m/S 749 mmHg 89%
    06:00 +14°C° 0 mm 1 m/S 749 mmHg 85%
    07:00 +15°C° 0 mm 1 m/S 749 mmHg 82%
    08:00 +16°C° 0 mm 2 m/S 749 mmHg 77%
    09:00 +17°C° 0 mm 2 m/S 749 mmHg 73%
    10:00 +18°C° 0 mm 2 m/S 749 mmHg 68%
    11:00 +19°C° 0 mm 2 m/S 749 mmHg 63%
    12:00 +20°C° 0 mm 3 m/S 748 mmHg 58%
    13:00 +21°C° 0 mm 3 m/S 748 mmHg 53%
    14:00 +21°C° 0 mm 3 m/S 748 mmHg 53%
    15:00 +22°C° 0 mm 3 m/S 748 mmHg 52%
    16:00 +22°C° 0 mm 3 m/S 748 mmHg 52%
    17:00 +21°C° 0 mm 3 m/S 748 mmHg 57%
    18:00 +21°C° 0 mm 3 m/S 748 mmHg 61%
    19:00 +20°C° 0 mm 2 m/S 748 mmHg 65%
    20:00 +18°C° 0 mm 2 m/S 748 mmHg 71%
    21:00 +17°C° 0 mm 2 m/S 749 mmHg 77%
    22:00 +15°C° 0 mm 2 m/S 749 mmHg 82%
    23:00 +15°C° 0 mm 2 m/S 749 mmHg 84%

    26 Juni, Dienstag

    Zeit Temperatur Niederschläge Wind Luftdruck Luftfeuchtigkeit
    00:00 +14°C° 0 mm 2 m/S 749 mmHg 87%
    01:00 +14°C° 0 mm 2 m/S 749 mmHg 89%
    02:00 +13°C° 0 mm 1 m/S 749 mmHg 90%
    03:00 +13°C° 0 mm 1 m/S 748 mmHg 91%
    04:00 +13°C° 0 mm 1 m/S 748 mmHg 92%
    05:00 +14°C° 0 mm 2 m/S 748 mmHg 87%
    06:00 +15°C° 0 mm 2 m/S 748 mmHg 83%
    07:00 +16°C° 0 mm 2 m/S 748 mmHg 79%
    08:00 +18°C° 0 mm 2 m/S 748 mmHg 71%
    09:00 +20°C° 0 mm 3 m/S 748 mmHg 63%
    10:00 +22°C° 0 mm 3 m/S 748 mmHg 55%
    11:00 +23°C° 0 mm 4 m/S 748 mmHg 52%
    12:00 +25°C° 0 mm 4 m/S 748 mmHg 49%
    13:00 +26°C° 0 mm 4 m/S 748 mmHg 46%
    14:00 +26°C° 0 mm 4 m/S 748 mmHg 46%
    15:00 +26°C° 0 mm 4 m/S 748 mmHg 46%
    16:00 +26°C° 0 mm 4 m/S 747 mmHg 46%
    17:00 +25°C° 0 mm 4 m/S 747 mmHg 51%
    18:00 +24°C° 0 mm 3 m/S 747 mmHg 56%
    19:00 +22°C° 0 mm 3 m/S 747 mmHg 61%
    20:00 +21°C° 0 mm 2 m/S 748 mmHg 65%
    21:00 +19°C° 0 mm 2 m/S 748 mmHg 69%
    22:00 +17°C° 0 mm 2 m/S 748 mmHg 73%
    23:00 +17°C° 0 mm 2 m/S 748 mmHg 75%

    27 Juni, Mittwoch

    Zeit Temperatur Niederschläge Wind Luftdruck Luftfeuchtigkeit
    00:00 +16°C° 0 mm 2 m/S 748 mmHg 78%
    01:00 +15°C° 0 mm 2 m/S 748 mmHg 81%
    02:00 +15°C° 0 mm 2 m/S 748 mmHg 83%
    03:00 +15°C° 0 mm 1 m/S 748 mmHg 84%
    04:00 +14°C° 0 mm 1 m/S 748 mmHg 86%
    05:00 +15°C° 0 mm 2 m/S 748 mmHg 82%
    06:00 +17°C° 0 mm 2 m/S 748 mmHg 77%
    07:00 +18°C° 0 mm 2 m/S 749 mmHg 73%
    08:00 +20°C° 0 mm 2 m/S 749 mmHg 67%
    09:00 +22°C° 0 mm 3 m/S 749 mmHg 61%
    10:00 +24°C° 0 mm 3 m/S 749 mmHg 54%
    11:00 +25°C° 0 mm 4 m/S 748 mmHg 52%
    12:00 +26°C° 0 mm 4 m/S 748 mmHg 50%
    13:00 +27°C° 0 mm 4 m/S 748 mmHg 47%
    14:00 +27°C° 0 mm 4 m/S 748 mmHg 48%
    15:00 +27°C° 0 mm 4 m/S 747 mmHg 48%
    16:00 +27°C° 0 mm 4 m/S 747 mmHg 48%
    17:00 +27°C° 0 mm 4 m/S 747 mmHg 53%
    18:00 +26°C° 0 mm 3 m/S 747 mmHg 58%
    19:00 +25°C° 0 mm 3 m/S 747 mmHg 62%
    20:00 +22°C° 0 mm 3 m/S 748 mmHg 66%
    21:00 +21°C° 0 mm 2 m/S 748 mmHg 71%
    22:00 +19°C° 0 mm 2 m/S 748 mmHg 75%
    23:00 +19°C° 0 mm 2 m/S 748 mmHg 78%
    Mehr zeigen